Location: Privas
(44.7330°N, 4.6000°E)
Time: 02:43:05
(UTC+01:00)

ISS - Visible Passes

Search period start: 16 February 2019 00:00
Search period end: 26 February 2019 00:00
Orbit: 403 x 411 km, 51.6° (Epoch: 16 February)

Date Brightness Start Highest point End Pass type
(mag) Time Alt. Az. Time Alt. Az. Time Alt. Az.
23 Feb -1.4 06:32:02 10° S 06:34:37 22° SE 06:37:13 10° E visible
24 Feb -0.9 05:41:51 10° SSE 05:43:19 12° SE 05:44:47 10° ESE visible
25 Feb -3.0 06:24:43 10° SW 06:27:52 49° SE 06:31:04 10° ENE visible
